Columbia / Mount Pleasant, TN

1:04 PM CDT on March 27, 2017 (GMT -0500)
Maury County

Weather History for KMRC - April, 2014

Change the Weather History Date:

Sunday, April 20, 2014

  Actual Average (KBNA) Record (KBNA)
Temperature  
Mean Temperature 60 °F -  
Max Temperature 80 °F 73 °F 87 °F (1964)
Min Temperature 41 °F 49 °F 26 °F (1983)
Degree Days  
Heating Degree Days 4    
Growing Degree Days 10 (Base 50)    
Moisture  
Dew Point 50 °F    
Average Humidity 72    
Maximum Humidity 100    
Minimum Humidity 36    
Precipitation  
Precipitation 0.00 in - - ()
Sea Level Pressure  
Sea Level Pressure 30.16 in    
Wind  
Wind Speed 1 mph (SSW)    
Max Wind Speed 8 mph    
Max Gust Speed -    
Visibility 9 miles    
Events      
Averages and records for this station are not official NWS values.
T = Trace of Precipitation, MM = Missing Value Source: NWS Daily Summary

Daily Weather History Graph

Daily Weather History Graph

Search for Another Location

Airport or City:

Trip Planner

Search our weather history database for the weather conditions in past years. The results will help you decide how hot, cold, wet, or windy it might be!

Date:

Astronomy

Apr. 20, 2014 Rise Set
Actual Time 6:09 AM CDT 7:26 PM CDT
Civil Twilight 5:43 AM CDT 7:52 PM CDT
Nautical Twilight 5:11 AM CDT 8:24 PM CDT
Astronomical Twilight 4:38 AM CDT 8:57 PM CDT
Moon 12:01 AM CDT (4/20) 10:33 AM CDT (4/20)
Length of Visible Light 14h 09m
Length of Day
13h 16m
Waning Gibbous, 68% of the Moon is Illuminated
Apr 20
Waning Gibbous
Apr 22
Last Quarter
Apr 29
New
May 6
First Quarter
May 14
Full

Hourly Weather History & Observations

Time (CDT) Temp. Windchill Dew Point Humidity Pressure Visibility Wind Dir Wind Speed Gust Speed Precip Events Conditions
12:35 AM 48.2 °F - 48.2 °F 100% 30.16 in 10.0 mi Calm Calm - N/A   Clear
12:55 AM 48.2 °F - 48.2 °F 100% 30.16 in 10.0 mi Calm Calm - N/A   Clear
1:15 AM 46.4 °F - 46.4 °F 100% 30.16 in 10.0 mi Calm Calm - N/A   Clear
1:35 AM 46.4 °F 45.2 °F 46.4 °F 100% 30.15 in 10.0 mi SSW 3.5 mph - N/A   Clear
1:55 AM 46.4 °F - 46.4 °F 100% 30.15 in 10.0 mi Calm Calm - N/A   Clear
2:15 AM 46.4 °F - 46.4 °F 100% 30.15 in 10.0 mi Calm Calm - N/A   Clear
2:35 AM 46.4 °F - 46.4 °F 100% 30.15 in 10.0 mi Calm Calm - N/A   Clear
2:55 AM 44.6 °F - 44.6 °F 100% 30.15 in 10.0 mi Calm Calm - N/A   Clear
3:15 AM 44.6 °F 43.1 °F 44.6 °F 100% 30.16 in 10.0 mi SW 3.5 mph - N/A   Clear
3:35 AM 46.4 °F - 44.6 °F 93% 30.17 in 10.0 mi Calm Calm - N/A   Clear
3:55 AM 44.6 °F - 44.6 °F 100% 30.16 in 10.0 mi Calm Calm - N/A   Clear
4:15 AM 44.6 °F 43.1 °F 44.6 °F 100% 30.16 in 9.0 mi SSW 3.5 mph - N/A   Clear
4:35 AM 44.6 °F - 44.6 °F 100% 30.16 in 8.0 mi Calm Calm - N/A   Clear
4:55 AM 42.8 °F - 42.8 °F 100% 30.17 in 10.0 mi Calm Calm - N/A   Clear
5:15 AM 42.8 °F - 42.8 °F 100% 30.18 in 6.0 mi Calm Calm - N/A   Clear
5:35 AM 42.8 °F - 42.8 °F 100% 30.18 in 6.0 mi Calm Calm - N/A   Clear
5:55 AM 41.0 °F - 41.0 °F 100% 30.19 in 6.0 mi Calm Calm - N/A   Clear
6:15 AM 42.8 °F - 42.8 °F 100% 30.20 in 5.0 mi Calm Calm - N/A   Clear
6:35 AM 42.8 °F - 42.8 °F 100% 30.21 in 6.0 mi Calm Calm - N/A   Clear
6:55 AM 42.8 °F - 42.8 °F 100% 30.21 in 3.0 mi Calm Calm - N/A   Clear
7:15 AM 46.4 °F - 46.4 °F 100% 30.22 in 10.0 mi Calm Calm - N/A   Clear
7:35 AM 48.2 °F - 48.2 °F 100% 30.23 in 10.0 mi Calm Calm - N/A   Clear
7:55 AM 51.8 °F - 48.2 °F 88% 30.23 in 4.0 mi Calm Calm - N/A   Clear
8:15 AM 55.4 °F - 50.0 °F 82% 30.23 in 5.0 mi Calm Calm - N/A   Clear
8:35 AM 59.0 °F - 50.0 °F 72% 30.23 in 10.0 mi Calm Calm - N/A   Clear
8:55 AM 62.6 °F - 51.8 °F 68% 30.23 in 7.0 mi Calm Calm - N/A   Clear
9:15 AM 66.2 °F - 55.4 °F 68% 30.23 in 10.0 mi Variable 5.8 mph - N/A   Clear
9:35 AM 68.0 °F - 57.2 °F 68% 30.23 in 10.0 mi Variable 6.9 mph - N/A   Clear
9:55 AM 69.8 °F - 57.2 °F 64% 30.23 in 10.0 mi SSW 8.1 mph - N/A   Clear
10:15 AM 69.8 °F - 57.2 °F 64% 30.23 in 10.0 mi SW 6.9 mph - N/A   Clear
10:35 AM 71.6 °F - 57.2 °F 60% 30.22 in 10.0 mi West 4.6 mph - N/A   Clear
10:55 AM 71.6 °F - 55.4 °F 57% 30.23 in 10.0 mi Variable 4.6 mph - N/A   Clear
11:15 AM 73.4 °F - 55.4 °F 53% 30.22 in 10.0 mi Calm Calm - N/A   Clear
11:35 AM 75.2 °F - 55.4 °F 50% 30.22 in 10.0 mi WSW 4.6 mph - N/A   Clear
11:55 AM 75.2 °F - 55.4 °F 50% 30.21 in 10.0 mi SSW 3.5 mph - N/A   Clear
12:15 PM 75.2 °F - 55.4 °F 50% 30.20 in 10.0 mi Calm Calm - N/A   Clear
12:35 PM 75.2 °F - 53.6 °F 47% 30.19 in 10.0 mi North 4.6 mph - N/A   Clear
1:15 PM 77.0 °F - 55.4 °F 47% 30.18 in 10.0 mi North 5.8 mph - N/A   Clear
1:35 PM 77.0 °F - 53.6 °F 44% 30.17 in 10.0 mi Variable 3.5 mph - N/A   Clear
1:55 PM 78.8 °F - 51.8 °F 39% 30.17 in 10.0 mi NNW 3.5 mph - N/A   Clear
2:15 PM 77.0 °F - 51.8 °F 41% 30.16 in 10.0 mi Calm Calm - N/A   Clear
2:35 PM 78.8 °F - 50.0 °F 36% 30.15 in 10.0 mi Calm Calm - N/A   Clear
2:55 PM 78.8 °F - 55.4 °F 44% 30.14 in 10.0 mi ESE 3.5 mph - N/A   Clear
3:15 PM 78.8 °F - 53.6 °F 42% 30.14 in 10.0 mi East 3.5 mph - N/A   Clear
3:35 PM 77.0 °F - 51.8 °F 41% 30.14 in 10.0 mi NNE 3.5 mph - N/A   Clear
3:55 PM 78.8 °F - 51.8 °F 39% 30.13 in 10.0 mi Calm Calm - N/A   Clear
4:15 PM 78.8 °F - 51.8 °F 39% 30.12 in 10.0 mi Calm Calm - N/A   Clear
4:35 PM 78.8 °F - 53.6 °F 42% 30.11 in 10.0 mi Calm Calm - N/A   Clear
4:55 PM 78.8 °F - 53.6 °F 42% 30.11 in 10.0 mi NE 3.5 mph - N/A   Clear
5:15 PM 78.8 °F - 51.8 °F 39% 30.11 in 10.0 mi Calm Calm - N/A   Clear
5:35 PM 80.6 °F - 51.8 °F 37% 30.10 in 10.0 mi Calm Calm - N/A   Clear
6:15 PM 78.8 °F - 51.8 °F 39% 30.10 in 10.0 mi Calm Calm - N/A   Clear
6:35 PM 78.8 °F - 51.8 °F 39% 30.09 in 10.0 mi Calm Calm - N/A   Clear
6:55 PM 75.2 °F - 51.8 °F 44% 30.09 in 10.0 mi Calm Calm - N/A   Clear
7:15 PM 73.4 °F - 53.6 °F 50% 30.09 in 10.0 mi Calm Calm - N/A   Clear
7:35 PM 69.8 °F - 51.8 °F 53% 30.10 in 10.0 mi Calm Calm - N/A   Clear
7:55 PM 68.0 °F - 51.8 °F 56% 30.10 in 10.0 mi SSE 5.8 mph - N/A   Clear
8:15 PM 64.4 °F - 53.6 °F 68% 30.10 in 10.0 mi Variable 4.6 mph - N/A   Clear
8:35 PM 62.6 °F - 51.8 °F 68% 30.11 in 10.0 mi SE 3.5 mph - N/A   Clear
8:55 PM 60.8 °F - 51.8 °F 72% 30.11 in 10.0 mi Calm Calm - N/A   Clear
9:15 PM 60.8 °F - 51.8 °F 72% 30.11 in 10.0 mi South 3.5 mph - N/A   Clear
9:35 PM 59.0 °F - 51.8 °F 77% 30.11 in 10.0 mi Calm Calm - N/A   Clear
9:55 PM 59.0 °F - 53.6 °F 82% 30.11 in 10.0 mi Calm Calm - N/A   Clear
10:15 PM 55.4 °F - 51.8 °F 88% 30.11 in 10.0 mi Calm Calm - N/A   Clear
10:35 PM 57.2 °F - 51.8 °F 82% 30.12 in 10.0 mi Calm Calm - N/A   Clear
10:55 PM 55.4 °F - 51.8 °F 88% 30.12 in 10.0 mi Calm Calm - N/A   Clear
11:15 PM 55.4 °F - 51.8 °F 88% 30.11 in 10.0 mi Calm Calm - N/A   Clear
11:35 PM 55.4 °F - 51.8 °F 88% 30.11 in 10.0 mi Calm Calm - N/A   Clear
11:55 PM 53.6 °F - 51.8 °F 94% 30.11 in 10.0 mi Calm Calm - N/A   Clear